Regional Weather Roundup
Issued by NWS State College, PA

Home | Current Version | Previous Version | Graphics & Text | Print | Product List | Glossary Off
Versions: 1 2 3 4 5 6 7 8 9 10 11 12 13 14 15 16 17 18 19 20 21 22 23 24 25 26 27 28 29 30 31 32 33 34 35 36 37 38 39 40 41 42 43 44 45 46 47 48 49 50

000
ASUS41 KCTP 240803
RWRCTP

REGIONAL WEATHER ROUNDUP
NATIONAL WEATHER SERVICE STATE COLLEGE PA
300 AM EST TUE JAN 24 2017

Note: "fair" indicates few or no clouds below 12,000 feet with no
significant weather and/or obstructions to visibility.

* = STATION THAT DOES NOT REPORT PRECIPITATION /E.G. RAIN...SNOW...ETC/
    THUNDER OR FOG.

PAZ002>004-007>009-013>016-020>023-029>032-240900-
WESTERN PENNSYLVANIA

CITY           SKY/WX    TMP DP  RH WIND       PRES   REMARKS
ERIE           CLOUDY    36  32  85 NE13      29.65S
MEADVILLE      CLOUDY    38  36  92 NE7       29.60S FOG
FRANKLIN*        N/A     36  34  93 N3        29.61S
NEW CASTLE     CLOUDY    37  36  96 CALM      29.63R
BEAVER COUNTY  NOT AVBL
BUTLER*        CLOUDY    34  32  93 CALM      29.63S
PITTSBURGH INT CLOUDY    36  35  96 N3        29.60S
PITTSBURGH     CLOUDY    35  32  88 N5        29.59S FOG
INDIANA*       CLOUDY    34  34 100 NW5       29.60S FOG
LATROBE        LGT RAIN  32  32 100 NW3       29.60S
WASHINGTON CO* CLOUDY    36  34  93 CALM      29.61S
$$

PAZ004>006-010>012-017>019-024>028-033>037-041-042-045-046-049>053-240900-
CENTRAL PENNSYLVANIA

CITY           SKY/WX    TMP DP  RH WIND       PRES   REMARKS
BRADFORD       LGT SNOW  31  31 100 N6        29.56S FOG
DUBOIS         LGT SNOW  33  30  88 N8        29.55S FOG
CLEARFIELD     LGT SNOW  33  33 100 N6        29.55F FOG
JOHNSTOWN      LGT SNOW  31  31 100 NW9       29.51S FOG
ALTOONA        LGT SNOW  34  32  92 N5        29.53S FOG
STATE COLLEGE  LGT SNOW  32  32 100 CALM      29.54S
WILLIAMSPORT   LGT SNOW  33  32  96 W9        29.55S FOG
SELINSGROVE    LGT RAIN  34  32  92 NW13      29.53F
FT INDIANTOWN  LGT RAIN  36  36 100 VRB6      29.48R
CAPITAL CITY   LGT RAIN  36  33  89 NW8       29.51R FOG
HARRISBURG     LGT SNOW  36  35  96 NW10      29.50R FOG
YORK           LGT RAIN  35  35 100 NW10      29.48R
$$

PAZ038>040-043-044-047-048-054-055-060>062-067>071-240900-
EASTERN PENNSYLVANIA

CITY           SKY/WX    TMP DP  RH WIND       PRES   REMARKS
SCRANTON       RAIN      34  33  96 E3        29.48S FOG
MOUNT POCONO   MIX PCPN  31  28  89 N8G20     29.40F FOG
ALLENTOWN      RAIN      37  33  85 N10       29.45R FOG
QUAKERTOWN*    CLOUDY    34  32  93 N13       29.43F
READING        LGT RAIN  37  37 100 N9        29.45S
LANCASTER      LGT RAIN  38  36  92 N9        29.47R
COATESVILLE    CLOUDY    36  34  93 N12       29.42F
POTTSTOWN      LGT RAIN  35  33  92 N8        29.44F
BLUE BELL      CLOUDY    36  36 100 N3        29.40S
DOYLESTOWN     LGT RAIN  38  37  97 N6        29.40S
WILLOW GROVE   NOT AVBL
NORTH PHILA    LGT RAIN  39  37  92 N13       29.40S FOG
PHILADELPHIA   LGT RAIN  38  36  92 N17       29.40S FOG
$$




USA.gov is the U.S. government's official web portal to all federal, state and local government web resources and services.